Albany, NY
on Wednesday, December 6, 2017

Wednesday
       
Previous Day Next Day
Daily Summary
 ActualAverageRecord
Temperature
Mean Temperature °F °C 32°F 0°C  
Max Temperature 53°F 12°C 39°F 4°C 68°F 20°C (2001)
Min Temperature 29°F -2°C 25°F -4°C -5°F -20°C (1901)
Degree Days
Heating Degree Days 24 33  
Month to date heating degree days 165 192  
Since 1 July heating degree days 1279 1596  
Cooling Degree Days 0 0  
Month to date cooling degree days 0 0  
Year to date cooling degree days 714 598  
Moisture
Dew Point 25°F -4°C   
Average Humidity 60    
Maximum Humidity 89    
Minimum Humidity 30    
Precipitation
Precipitation 0.19 in / 4.83 cm 0.11 in / 2.79 cm 1.26 in / 3.20 cm (1953)
Month to date precipitation 0.44 0.64  
Year to date precipitation 38.67 37.06  
Snow
Snow 0.00 in / 0.00 cm 0.40 in / 1.02 cm 12.50 in / 31.75 cm (2003)
Month to date snowfall 0.0 2.0  
Since 1 July snowfall T 5.1  
Snow Depth 0.00 in / 0.00 cm   
Wind
Wind Speed 9 mph / 14 km/h   
Max Wind Speed 25 mph / 40 km/h   
Max Gust Speed 36 mph / 58 km/h   
Visibility 9 miles / 15 kilometers   
Events Rain   

Key: T is trace of precipitation, MM is missing value
Source: NWS Daily Summary
Time(EST)TemperatureDew PointHumidity Pressure Visibility Wind DirectionWind SpeedGust SpeedPrecipitationEvents Conditions
12:51 AM 53.1°F 11.7°C 50.0°F 10.0°C 89% 29.75 in / 1007.3 hPa 7.0 miles / 11.3 kilometers Variable 5.8 mph / 9.3 km/h - 0.01 in / 0.3 cm Rain Light Rain
12:54 AM 52.0°F 11.1°C 48.9°F 9.4°C 89% 29.75 in / 1007.3 hPa 4.0 miles / 6.4 kilometers NW 17.3 mph / 27.8 km/h 23.0 mph / 37.0 km/h 0.00 in / 0.0 cm Rain Rain
1:00 AM 46.9°F 8.3°C 43.0°F 6.1°C 86% 29.75 in / 1007.3 hPa 4.0 miles / 6.4 kilometers WNW 25.3 mph / 40.7 km/h 35.7 mph / 57.4 km/h 0.05 in / 1.3 cm Rain Rain
1:04 AM 46.9°F 8.3°C 42.1°F 5.6°C 83% 29.76 in / 1007.7 hPa 4.0 miles / 6.4 kilometers WNW 23.0 mph / 37.0 km/h 35.7 mph / 57.4 km/h 0.08 in / 2.0 cm Rain Rain
1:09 AM 46.0°F 7.8°C 42.1°F 5.6°C 86% 29.76 in / 1007.7 hPa 4.0 miles / 6.4 kilometers WNW 18.4 mph / 29.6 km/h 31.1 mph / 50.0 km/h 0.09 in / 2.3 cm Rain Rain
1:31 AM 46.0°F 7.8°C 41.0°F 5.0°C 83% 29.77 in / 1008.0 hPa 6.0 miles / 9.7 kilometers WNW 15.0 mph / 24.1 km/h 25.3 mph / 40.7 km/h 0.16 in / 4.1 cm Rain Light Rain
1:51 AM 46.0°F 7.8°C 39.9°F 4.4°C 79% 29.79 in / 1008.7 hPa 10.0 miles / 16.1 kilometers WNW 12.7 mph / 20.4 km/h - 0.17 in / 4.3 cm Rain Light Rain
2:51 AM 44.1°F 6.7°C 37.9°F 3.3°C 79% 29.83 in / 1009.9 hPa 10.0 miles / 16.1 kilometers West 12.7 mph / 20.4 km/h 19.6 mph / 31.5 km/h 0.01 in / 0.3 cm   Overcast
3:32 AM 43.0°F 6.1°C 35.1°F 1.7°C 74% 29.85 in / 1010.7 hPa 10.0 miles / 16.1 kilometers NW 19.6 mph / 31.5 km/h 26.5 mph / 42.6 km/h N/A   Overcast
3:51 AM 41.0°F 5.0°C 30.9°F -0.6°C 67% 29.86 in / 1011.2 hPa 10.0 miles / 16.1 kilometers WNW 16.1 mph / 25.9 km/h 28.8 mph / 46.3 km/h N/A   Overcast
4:51 AM 39.0°F 3.9°C 28.9°F -1.7°C 67% 29.90 in / 1012.4 hPa 10.0 miles / 16.1 kilometers NNW 8.1 mph / 13.0 km/h - N/A   Overcast
5:51 AM 37.9°F 3.3°C 25.0°F -3.9°C 60% 29.91 in / 1012.9 hPa 10.0 miles / 16.1 kilometers WNW 8.1 mph / 13.0 km/h - N/A   Overcast
6:51 AM 36.0°F 2.2°C 25.0°F -3.9°C 64% 29.93 in / 1013.4 hPa 10.0 miles / 16.1 kilometers NW 5.8 mph / 9.3 km/h - N/A   Overcast
7:51 AM 37.0°F 2.8°C 21.9°F -5.6°C 54% 29.95 in / 1014.0 hPa 10.0 miles / 16.1 kilometers Calm Calm - N/A   Mostly Cloudy
8:51 AM 37.0°F 2.8°C 21.0°F -6.1°C 52% 29.96 in / 1014.3 hPa 10.0 miles / 16.1 kilometers WSW 6.9 mph / 11.1 km/h - N/A   Mostly Cloudy
9:51 AM 37.9°F 3.3°C 19.0°F -7.2°C 47% 29.96 in / 1014.4 hPa 10.0 miles / 16.1 kilometers West 13.8 mph / 22.2 km/h 25.3 mph / 40.7 km/h N/A   Scattered Clouds
10:51 AM 39.9°F 4.4°C 18.0°F -7.8°C 41% 29.95 in / 1014.0 hPa 10.0 miles / 16.1 kilometers WSW 13.8 mph / 22.2 km/h 20.7 mph / 33.3 km/h N/A   Partly Cloudy
11:51 AM 41.0°F 5.0°C 18.0°F -7.8°C 40% 29.93 in / 1013.4 hPa 10.0 miles / 16.1 kilometers WSW 13.8 mph / 22.2 km/h - N/A   Partly Cloudy
12:51 PM 42.1°F 5.6°C 17.1°F -8.3°C 37% 29.90 in / 1012.4 hPa 10.0 miles / 16.1 kilometers WSW 10.4 mph / 16.7 km/h - N/A   Partly Cloudy
1:51 PM 42.1°F 5.6°C 15.1°F -9.4°C 34% 29.89 in / 1012.1 hPa 10.0 miles / 16.1 kilometers West 9.2 mph / 14.8 km/h - N/A   Partly Cloudy
2:51 PM 42.1°F 5.6°C 14.0°F -10.0°C 32% 29.90 in / 1012.5 hPa 10.0 miles / 16.1 kilometers West 10.4 mph / 16.7 km/h - N/A   Partly Cloudy
3:51 PM 39.9°F 4.4°C 14.0°F -10.0°C 35% 29.93 in / 1013.4 hPa 10.0 miles / 16.1 kilometers West 9.2 mph / 14.8 km/h - N/A   Partly Cloudy
4:51 PM 36.0°F 2.2°C 14.0°F -10.0°C 41% 29.94 in / 1013.7 hPa 10.0 miles / 16.1 kilometers WSW 4.6 mph / 7.4 km/h - N/A   Partly Cloudy
5:51 PM 36.0°F 2.2°C 14.0°F -10.0°C 41% 29.92 in / 1013.2 hPa 10.0 miles / 16.1 kilometers South 5.8 mph / 9.3 km/h - N/A   Partly Cloudy
6:51 PM 34.0°F 1.1°C 15.1°F -9.4°C 46% 29.92 in / 1013.2 hPa 10.0 miles / 16.1 kilometers SSE 4.6 mph / 7.4 km/h - N/A   Partly Cloudy
7:51 PM 34.0°F 1.1°C 16.0°F -8.9°C 48% 29.92 in / 1013.0 hPa 10.0 miles / 16.1 kilometers SSE 5.8 mph / 9.3 km/h - N/A   Partly Cloudy
8:51 PM 30.9°F -0.6°C 17.1°F -8.3°C 57% 29.93 in / 1013.4 hPa 10.0 miles / 16.1 kilometers SSW 5.8 mph / 9.3 km/h - N/A   Mostly Cloudy
9:51 PM 37.0°F 2.8°C 17.1°F -8.3°C 44% 29.92 in / 1013.2 hPa 10.0 miles / 16.1 kilometers SSE 8.1 mph / 13.0 km/h - N/A   Overcast
10:51 PM 36.0°F 2.2°C 18.0°F -7.8°C 48% 29.92 in / 1013.0 hPa 10.0 miles / 16.1 kilometers South 6.9 mph / 11.1 km/h - N/A   Overcast
11:51 PM 35.1°F 1.7°C 19.0°F -7.2°C 52% 29.91 in / 1012.7 hPa 10.0 miles / 16.1 kilometers South 6.9 mph / 11.1 km/h - N/A   Overcast